Mumbai, India

7:28 PM IST on July 25, 2017 (GMT +0530)
Chhatrapati Shivaji International

Weather History for VABB - November, 2012

Change the Weather History Date:

Tuesday, November 20, 2012

  Actual Average Record
Temperature  
Mean Temperature 77 °F -  
Max Temperature 91 °F 89 °F 98 °F (2001)
Min Temperature 63 °F 69 °F 61 °F (2016)
Cooling Degree Days 12    
Growing Degree Days 27 (Base 50)    
Moisture  
Dew Point 48 °F    
Average Humidity 33    
Maximum Humidity 66    
Minimum Humidity 11    
Precipitation  
Precipitation 0.00 in - - ()
Sea Level Pressure  
Sea Level Pressure 29.87 in    
Wind  
Wind Speed 5 mph ()    
Max Wind Speed 10 mph    
Max Gust Speed -    
Visibility 2.0 miles    
Events      
Averages and records for this station are not official NWS values.
T = Trace of Precipitation, MM = Missing Value Source: Averaged Metar Reports

Daily Weather History Graph

Daily Weather History Graph

Search for Another Location

Airport or City:

Trip Planner

Search our weather history database for the weather conditions in past years. The results will help you decide how hot, cold, wet, or windy it might be!

Date:

Astronomy

Nov. 20, 2012 Rise Set
Actual Time 6:49 AM IST 5:59 PM IST
Civil Twilight 6:25 AM IST 6:22 PM IST
Nautical Twilight 5:59 AM IST 6:49 PM IST
Astronomical Twilight 5:32 AM IST 7:15 PM IST
Moon 12:32 PM IST (11/20) No Moon Set
Length of Visible Light 11h 56m
Length of Day
11h 10m
Waxing Crescent, 46% of the Moon is Illuminated
Nov 20
Waxing Crescent
Nov 20
First Quarter
Nov 28
Full
Dec 6
Last Quarter
Dec 13
New

Hourly Weather History & Observations

Time (IST) Temp. Heat Index Dew Point Humidity Pressure Visibility Wind Dir Wind Speed Gust Speed Precip Events Conditions
12:10 AM 78.8 °F - 44.6 °F 30% 29.89 in 1.9 mi ENE 8.1 mph - N/A   Smoke
12:40 AM 78.8 °F - 42.8 °F 28% 29.89 in 1.9 mi East 6.9 mph - N/A   Smoke
1:10 AM 77.0 °F - 41.0 °F 28% 29.86 in 1.9 mi ENE 5.8 mph - N/A   Smoke
1:40 AM 77.0 °F - 41.0 °F 28% 29.86 in 1.9 mi ENE 6.9 mph - N/A   Smoke
2:10 AM 77.0 °F - 41.0 °F 28% 29.86 in 1.9 mi East 9.2 mph - N/A   Smoke
2:30 AM 66 °F - 54 °F 56% 29.86 in 1 mi NE 4.6 mph - -   Smoke
2:40 AM 75.2 °F - 41.0 °F 29% 29.86 in 1.9 mi ENE 4.6 mph - N/A   Smoke
3:10 AM 77.0 °F - 41.0 °F 28% 29.86 in 2.2 mi ENE 6.9 mph - N/A   Smoke
3:40 AM 75.2 °F - 42.8 °F 31% 29.86 in 2.2 mi East 5.8 mph - N/A   Smoke
4:10 AM 77.0 °F - 41.0 °F 28% 29.86 in 2.2 mi East 9.2 mph - N/A   Smoke
4:40 AM 71.6 °F - 46.4 °F 41% 29.86 in 2.2 mi Calm Calm - N/A   Smoke
5:10 AM 77.0 °F - 39.2 °F 26% 29.86 in - NE 4.6 mph - N/A   Smoke
5:30 AM 64 °F - 46 °F 41% 29.87 in 1 mi Calm Calm - -   Smoke
6:10 AM 75.2 °F - 44.6 °F 34% 29.89 in 1.9 mi NNE 3.5 mph - N/A   Smoke
6:40 AM 75.2 °F - 41.0 °F 29% 29.89 in 1.9 mi NE 5.8 mph - N/A   Smoke
7:10 AM 75.2 °F - 41.0 °F 29% 29.89 in 1.9 mi ENE 3.5 mph - N/A   Smoke
7:40 AM 73.4 °F - 42.8 °F 33% 29.89 in 1.6 mi East 6.9 mph - N/A   Smoke
8:30 AM 73 °F - 48 °F 30% 29.93 in 1 mi NE 3.5 mph - -   Smoke
8:40 AM 77.0 °F - 42.8 °F 29% 29.92 in 1.9 mi NNE 6.9 mph - N/A   Smoke
9:10 AM 78.8 °F - 44.6 °F 30% 29.92 in 1.9 mi NNE 8.1 mph - N/A   Smoke
9:40 AM 82.4 °F - 44.6 °F 26% 29.92 in 1.9 mi ENE 9.2 mph - N/A   Smoke
10:10 AM 84.2 °F - 44.6 °F 25% 29.95 in 1.9 mi ENE 5.8 mph - N/A   Smoke
10:40 AM 84.2 °F - 44.6 °F 25% 29.92 in 2.2 mi NE 10.4 mph - N/A   Smoke
11:10 AM 86.0 °F - 42.8 °F 22% 29.92 in 2.2 mi NNE 10.4 mph - N/A   Smoke
11:30 AM 87 °F - 46 °F 15% 29.92 in 1 mi NE 4.6 mph - -   Smoke
11:40 AM 87.8 °F - 48.2 °F 25% 29.92 in 2.2 mi East 6.9 mph - N/A   Smoke
12:10 PM 86.0 °F - 48.2 °F 27% 29.89 in 2.2 mi East 10.4 mph - N/A   Smoke
12:40 PM 87.8 °F - 44.6 °F 22% 29.89 in 2.5 mi East 10.4 mph - N/A   Smoke
1:10 PM 89.6 °F - 42.8 °F 20% 29.86 in 2.5 mi East 5.8 mph - N/A   Smoke
1:40 PM 89.6 °F - 44.6 °F 21% 29.86 in 2.5 mi East 8.1 mph - N/A   Smoke
2:10 PM 91.4 °F - 41.0 °F 17% 29.83 in 2.5 mi NE 3.5 mph - N/A   Smoke
2:30 PM 91 °F - 43 °F 11% 29.83 in 1 mi Calm Calm - -   Smoke
2:40 PM 89.6 °F - 42.8 °F 20% 29.83 in 2.5 mi North 3.5 mph - N/A   Smoke
3:10 PM 91.4 °F - 41.0 °F 17% 29.80 in 2.5 mi NE 3.5 mph - N/A   Smoke
3:40 PM 91.4 °F - 42.8 °F 18% 29.80 in 2.5 mi North 6.9 mph - N/A   Smoke
4:10 PM 89.6 °F - 42.8 °F 20% 29.80 in 2.5 mi North 6.9 mph - N/A   Smoke
4:40 PM 86.0 °F 84.9 °F 57.2 °F 37% 29.80 in 2.5 mi WNW 9.2 mph - N/A   Smoke
5:10 PM 84.2 °F 83.8 °F 59.0 °F 42% 29.80 in 2.5 mi NW 9.2 mph - N/A   Smoke
5:30 PM 84 °F - 57 °F 30% 29.83 in 1 mi NW 4.6 mph - -   Smoke
5:40 PM 84.2 °F 83.0 °F 55.4 °F 37% 29.80 in 2.5 mi NW 6.9 mph - N/A   Smoke
6:10 PM 82.4 °F 82.5 °F 59.0 °F 45% 29.83 in 2.5 mi NW 5.8 mph - N/A   Smoke
6:40 PM 82.4 °F 82.5 °F 59.0 °F 45% 29.83 in 2.2 mi NNW 4.6 mph - N/A   Smoke
7:10 PM 80.6 °F 81.5 °F 60.8 °F 51% 29.83 in 2.2 mi NNW 5.8 mph - N/A   Smoke
7:40 PM 80.6 °F 81.1 °F 59.0 °F 48% 29.86 in 2.2 mi North 4.6 mph - N/A   Smoke
8:10 PM 80.6 °F 80.8 °F 57.2 °F 45% 29.86 in 2.2 mi North 6.9 mph - N/A   Smoke
8:30 PM 80 °F - 61 °F 42% 29.86 in 1 mi NW 4.6 mph - -   Smoke
8:40 PM 80.6 °F 80.8 °F 57.2 °F 45% 29.86 in 2.2 mi North 6.9 mph - N/A   Smoke
9:10 PM 80.6 °F 80.8 °F 57.2 °F 45% 29.89 in 2.2 mi North 3.5 mph - N/A   Smoke
9:40 PM 78.8 °F - 57.2 °F 47% 29.89 in 2.2 mi Calm Calm - N/A   Smoke
10:10 PM 78.8 °F - 55.4 °F 44% 29.89 in 2.2 mi Calm Calm - N/A   Smoke
10:40 PM 78.8 °F - 53.6 °F 42% 29.89 in 2.2 mi SSE 3.5 mph - N/A   Smoke
11:10 PM 78.8 °F - 53.6 °F 42% 29.89 in 2.2 mi Calm Calm - N/A   Smoke
11:30 PM 69 °F - 60 °F 66% 29.88 in 1 mi Calm Calm - -   Smoke
11:40 PM 78.8 °F - 53.6 °F 42% 29.89 in 2.2 mi ESE 6.9 mph - N/A   Smoke